FLOCK 2EP-3

Last updated on May 29, 2016, 5:36 p.m. UTC

1 41480U 98067JA  16150.25095968  .00012565  00000-0  18627-3 0  9990
2 41480  51.6414 152.4243 0001399 325.7579 121.5416 15.55637259  1853

Satellite is not in orbit.